Location: Beadle
(51.4667°N, 109.0000°W)
Time: 09:17:16
(UTC+00:00)

deb Explorer IX - Pass Details

Date: 28 May 2022
Orbit: 535 x 1068 km, 38.8° (Epoch: 04 July)

Event Time Altitude Azimuth Distance (km) Brightness Sun altitude
Rises 19:33:14 0° 243° (WSW) 3,774 ? 59.8°
Reaches altitude 10° 19:36:29 10° 232° (SW) 2,762 ? 59.8°
Maximum altitude 19:41:45 25° 179° (S) 1,769 ? 59.6°
Drops below altitude 10° 19:46:33 10° 126° (SE) 2,486 ? 59.4°
Sets 19:49:19 0° 113° (ESE) 3,325 ? 59.3°
